STARLINK-32304 (60738 NORAD) Tracking and Keplerian Element Data

This shows tracking and keplerian element data for the satellite.

Feedback or suggestion? Click here.




ElementValue
Catalog60738
NameSTARLINK-32304
Epoch Orbit832
Epoch Day286.81073471
Epoch Year2024
RAAN130.9088
Inclination53.1612
Eccentricity0.0001119
Argument of Perigee78.1521
Mean Anonmoly281.9605
Mean Motion15.30192984
Decay Rate-1.681E-05
L11 60738U 24152U 24286.81073471 -.00001681 00000+0 -44639-4 0 9998
L22 60738 53.1612 130.9088 0001119 78.1521 281.9605 15.30192984 8325



Live tracking and technical data element details for STARLINK-32304 (NORAD 60738). STARLINK-32304 can be tracked NOW for your location showing map with azimuth and elevation plus other details from your city location.







IsCatalogInMostPopularTable: catalog: 60738, numindb: 8
Update: records affected: 1



GetName: 60738 STARLINK-32304

Hit Count: updated at: Tue, 03 Dec 2024 03:24:14 GMT